Regional Weather Roundup
Issued by NWS

Home | Current Version | Previous Version | Text Only | Print | Product List | Glossary On
Versions: 1 2 3 4 5 6 7 8 9 10 11 12 13 14 15 16 17 18 19 20 21 22 23 24 25 26 27 28 29 30 31 32 33 34 35 36 37 38 39 40 41 42 43 44 45 46 47 48 49 50
000
ASUS43 KTOP 212208
RWRKS

WEATHER ROUNDUP FOR KANSAS
NATIONAL WEATHER SERVICE GOODLAND KS
500 PM CDT TUE OCT 21 2014

NOTE:  "FAIR" INDICATES FEW OR NO CLOUDS BELOW 12,000 FEET WITH NO
SIGNIFICANT WEATHER AND/OR OBSTRUCTIONS TO VISIBILITY.

KSZ001>006-013>018-027>032-041>047-212300-
NORTHWEST KANSAS

CITY           SKY/WX    TMP DP  RH WIND       PRES   REMARKS
GOODLAND       SUNNY     78  46  32 S22G29    29.94S
HAYS           SUNNY     79  57  47 S15       29.97S
HILL CITY      SUNNY     79  56  45 S15G25    29.96S
RUSSELL        SUNNY     79  59  50 S14       29.96F
$$

KSZ061>065-074>080-084>089-212300-
SOUTHWEST KANSAS

CITY           SKY/WX    TMP DP  RH WIND       PRES   REMARKS
DODGE CITY     MOSUNNY   79  53  40 S16       30.00S
ELKHART          N/A     76  45  33 S15         N/A
GARDEN CITY    MOSUNNY   79  50  36 S18G25    29.98S
GREAT BEND     MOSUNNY   81  55  41 S15G22    29.97F
LIBERAL        MOSUNNY   81  50  34 S17       30.01F
PRATT          SUNNY     79  52  38 S14       30.01S
$$

KSZ066>073-081>083-090>101-212300-
SOUTHEAST KANSAS

CITY           SKY/WX    TMP DP  RH WIND       PRES   REMARKS
CHANUTE        SUNNY     74  56  53 SE5       30.05F
COFFEYVILLE    SUNNY     77  55  46 E8        30.04S
HUTCHINSON     SUNNY     81  58  45 S15       30.00F
MEDICINE LODGE   N/A     82  56  40 S12G18    29.98F
NEWTON         SUNNY     79  55  44 S10       30.04F
PARSONS        SUNNY     77  56  48 E3        30.06F
WICHITA INTL   PTSUNNY   81  59  47 S9G20     30.01S
WICHITA JABRA  MOSUNNY   79  58  48 S7        30.01F
WICHITA MCCONL SUNNY     79  58  49 SE10      30.02S
WINFIELD       MOSUNNY   78  61  55 S6        30.02F
$$

KSZ007>012-019>026-033>040-048>060-102>105-212300-
NORTHEAST KANSAS

CITY           SKY/WX    TMP DP  RH WIND       PRES   REMARKS
CONCORDIA      SUNNY     76  53  44 SE16      29.99F
EMPORIA        SUNNY     75  53  46 SE9       30.04F
LAWRENCE       SUNNY     74  43  32 S7        30.05F
MANHATTAN      SUNNY     77  51  40 SE8       30.01F
MARYSVILLE     SUNNY     73  41  31 S9        30.02S
OLATHE IND     SUNNY     72  45  37 SE3       30.07F
OLATHE EXE     SUNNY     73  44  35 CALM      30.07S
SALINA         SUNNY     79  57  46 S14       29.99F
TOPEKA BILLARD SUNNY     75  43  31 SE6       30.05S
TOPEKA FORBES  SUNNY     75  44  33 SE7       30.05F
$$



USA.gov is the U.S. government's official web portal to all federal, state and local government web resources and services.